Regional Weather Roundup
Issued by NWS

Home | Current Version | Previous Version | Text Only | Print | Product List | Glossary Off
Versions: 1 2 3 4 5 6 7 8 9 10 11 12 13 14 15 16 17 18 19 20 21 22 23 24 25 26 27 28 29 30 31 32 33 34 35 36 37 38 39 40 41 42 43 44 45 46 47 48 49 50

000
ASUS43 KLOT 301321
RWRIL

ILLINOIS REGIONAL WEATHER ROUNDUP
NATIONAL WEATHER SERVICE CHICAGO/ROMEOVILLE IL
800 AM CDT SAT MAY 30 2015

NOTE: "FAIR" INDICATES FEW OR NO CLOUDS BELOW 12,000 FEET WITH NO
SIGNIFICANT WEATHER AND/OR OBSTRUCTIONS TO VISIBILITY.

* THESE STATIONS ARE NOT UNDER NWS QUALITY CONTROL. THEY ALSO MAY NOT
  REPORT WEATHER SUCH AS PRECIPITATION OR FOG.

ILZ001-002-007-009-015-016-024-301400-
NORTHWEST ILLINOIS

CITY           SKY/WX    TMP DP  RH WIND       PRES   REMARKS
MOLINE         CLOUDY    67  64  90 W5        29.95F
STERLING*      CLOUDY    66  63  88 SW3       29.98R
SAVANNA*       CLOUDY    69  64  85 SW5       29.95S
$$

ILZ003-004-008-010-011-017-018-301400-
NORTH CENTRAL ILLINOIS

CITY           SKY/WX    TMP DP  RH WIND       PRES   REMARKS
ROCKFORD       LGT RAIN  66  64  93 SW5       29.98S
FREEPORT*      CLOUDY    66  65  95 SW6       29.99R
ROCHELLE*      DRIZZLE   65  63  95 SW6       29.98F
DE KALB*       CLOUDY    64  62  92 SW3       29.99S
PERU*          LGT RAIN  66  64  95 W7        29.99R
$$

ILZ005-006-012>014-019>023-301400-
NORTHEAST ILLINOIS

CITY           SKY/WX    TMP DP  RH WIND       PRES   REMARKS
CHICAGO-OHARE  LGT RAIN  67  64  90 W5        29.97S
CHICAGO-MIDWAY LGT RAIN  70  67  90 W6        29.97S
AURORA         CLOUDY    67  62  84 W6        29.98S
LANSING*       LGT RAIN  69  65  88 SW3       29.99R
JOLIET*        DRIZZLE   69  68  96 CALM      29.98R
WAUKEGAN       LGT RAIN  66  63  90 NW3       29.97S
DUPAGE AIRPORT LGT RAIN  67  64  90 W3        29.97S
KANKAKEE*      RAIN      66  65  96 SE5       30.01R
WHEELING       LGT RAIN  68  64  87 W6        29.98F
MORRIS*        LGT RAIN  67  64  91 NW6       29.97R
ROMEOVILLE*    RAIN      68  65  92 W5        29.99R
NORTHERLY ISL    N/A     69  65  86 W3          N/A
$$

LMZ740>746-301400-
SOUTHERN LAKE MICHIGAN

STATION/POSITION SKY/WX   TEMP    WIND        PRES    VSBY  WAVE
                          AIR SEA DIR/SP/G                  HT/PER
                          (F)     (DEG/KT/KT) (MB)    (MI)  (FT/S)
SOUTHERN BUOY              46 38  310/  4/  6 1015.9R         1
HARRISON CRIB              67     290/  2/  3   N/A
BURNHAM HARBOR             69     310/  3/  7   N/A
CALUMET HARBOR             68     200/  3/  3   N/A
BURNS HARBOR               67     230/  5/  7 1015.6R
MICHIGAN CITY              68     180/  5/  6   N/A
MICHIGAN CITY 6N           62 56  210/  4/  6   N/A           1
ST. JOSEPH                 62 57  240/  6/  6   N/A           1
$$

ILZ025>027-034>036-040-047-049-050-058-095>099-301400-
WEST-CENTRAL ILLINOIS

CITY           SKY/WX    TMP DP  RH WIND       PRES   REMARKS
QUINCY         LGT RAIN  66  64  93 CALM      29.97S
GALESBURG*     RAIN      64  63  97 S3        29.97S
MACOMB*        LGT RAIN  65  65  97 CALM      30.00R
JACKSONVILLE*  CLOUDY    68  66  94 NE5       29.96S
PITTSFIELD*    RAIN      66  64  93 CALM      29.98R
$$

ILZ028>032-037-038-041>044-048-051>054-059>061-301400-
CENTRAL ILLINOIS

CITY           SKY/WX    TMP DP  RH WIND       PRES   REMARKS
PONTIAC        LGT RAIN  67  66  96 CALM      30.00R
BLOOMINGTON    CLOUDY    67  67 100 SE6       30.01R
DECATUR        CLOUDY    67  66  97 E9        29.98F
PEORIA         LGT RAIN  69  64  84 E3        29.98S
LACON*         DRIZZLE   66  62  89 CALM      29.97S
LINCOLN*       DRIZZLE   67  66  94 E6        29.95F
SPRINGFIELD    CLOUDY    69  66  90 E5        29.97R
TAYLORVILLE    CLOUDY    66  64  94 E3        29.97R
$$

ILZ033-039-045-046-055>057-062-063-301400-
EAST-CENTRAL ILLINOIS

CITY           SKY/WX    TMP DP  RH WIND       PRES   REMARKS
CHAMPAIGN      LGT RAIN  68  65  90 N6        30.01R
DANVILLE*      CLOUDY    67  66  97 SE3       29.98S
RANTOUL*       CLOUDY    68  65  93 N7        30.00R
MATTOON        CLOUDY    71  67  87 S8        29.97F
PARIS*         PTSUNNY   73  67  82 S6        30.01S
$$

ILZ079-100>102-301400-
SOUTHWEST ILLINOIS

CITY           SKY/WX    TMP DP  RH WIND       PRES   REMARKS
ALTON          CLOUDY    70  70 100 MISG      29.96S
BELLEVILLE     CLOUDY    69  69 100 SE5       29.95R
CAHOKIA*       CLOUDY    70  68  93 SE5       29.95R
SPARTA*        CLOUDY    71  69  95 S3        29.97F
$$

ILZ064>066-069>071-074>076-080>082-084>086-088>090-092>094-301400-
SOUTH-CENTRAL ILLINOIS

CITY           SKY/WX    TMP DP  RH WIND       PRES   REMARKS
CARBONDALE     MOSUNNY   74  69  85 S9        29.97S
CAIRO*         PTSUNNY   74  68  82 S9        29.99R
EFFINGHAM*     PTSUNNY   73  67  83 SE8       29.99S
MARION         PTSUNNY   75  70  83 S9        29.99S
MT. VERNON     CLOUDY    73  66  78 S10       29.99R
CENTRALIA*     CLOUDY    74  68  82 S12       29.98R
SALEM*         CLOUDY    74  70  85 S9        29.98R
METROPOLIS*    CLOUDY    74  70  86 S9        29.99S
$$

ILZ067-068-072-073-078-083-087-091-301400-
SOUTHEAST ILLINOIS

CITY           SKY/WX    TMP DP  RH WIND       PRES   REMARKS
LAWRENCEVILLE  SUNNY     76  67  73 S14       30.00R
FLORA*         SUNNY     73  69  88 S8        29.99R
FAIRFIELD*     MOSUNNY   75  69  80 S9        29.97S
HARRISBURG*    PTSUNNY   75  69  79 S12       30.00S
ROBINSON*      MOSUNNY   75  67  76 S12       30.01S
CARMI*         CLOUDY    75  64  69 S13       29.99S
$$

ABBREVIATIONS USED IN REMARKS
   TC - TEMPERATURE IN CELSIUS
  WCI - WIND CHILL INDEX
   HX - HEAT INDEX
  VSB - VISIBILITY
$$




USA.gov is the U.S. government's official web portal to all federal, state and local government web resources and services.